Regional Weather Roundup
Issued by NWS Upton, NY

Current Version | Previous Version | Text Only | Print | Product List | Glossary On
Versions: 1 2 3 4 5 6 7 8 9 10 11 12 13 14 15 16 17 18 19 20 21 22 23 24 25 26 27 28 29 30 31 32 33 34 35 36 37 38 39 40 41 42 43 44 45 46 47 48 49 50
000
ASUS41 KOKX 250707
RWROKX

REGIONAL WEATHER ROUNDUP
NATIONAL WEATHER SERVICE NEW YORK NY
300 AM EDT SAT APR 25 2015

NOTE: "FAIR" INDICATES FEW OR NO CLOUDS BELOW 12,000 FEET WITH NO
SIGNIFICANT WEATHER AND/OR OBSTRUCTIONS TO VISIBILITY.

NYZ071-072-176-178-NJZ106-104-250800-
NEW YORK CITY METRO AREA


CITY           SKY/WX    TMP DP  RH WIND       PRES   REMARKS
CENTRAL PARK   CLEAR     39  20  46 VRB6      29.92F WCI  35
LAGUARDIA APRT CLEAR     39  22  50 NW14      29.90F WCI  31
KENNEDY INTL   CLEAR     39  20  46 NW13      29.92S WCI  31
NEWARK/LIBERTY CLEAR     38  22  52 W6        29.92F WCI  33
BRNX BOT. GARD   N/A     37  21  52 NW3       29.90F
TETERBORO      CLEAR     36  21  54 W3        29.90F
$$

NYZ177-179-078>081-250800-
LONG ISLAND NEW YORK

CITY           SKY/WX    TMP DP  RH WIND       PRES   REMARKS
FARMINGDALE    CLEAR     36  22  56 W7        29.89F WCI  30
ISLIP          CLEAR     33  21  61 SW7       29.87S WCI  27
SHIRLEY        CLEAR     33  21  61 W5        29.88F WCI  29
WESTHAMPTON    CLEAR     30  19  63 W9        29.88F WCI  22
MONTAUK POINT    N/A     40  24  53 W13G18    29.85F WCI  32
$$

NYZ052-065-067-250800-
HUDSON VALLEY

CITY           SKY/WX    TMP DP  RH WIND       PRES   REMARKS
WHITE PLAINS   CLEAR     35  20  54 W9        29.86F WCI  28
NEWBURGH       CLEAR     32  23  69 SW7       29.88F WCI  26
MONTGOMERY     CLEAR     33  21  61 W8        29.87F WCI  26
POUGHKEEPSIE   CLEAR     34  21  59 W8        29.87S WCI  27
ALBANY         PTCLDY    34  22  61 NW7       29.87F WCI  28
$$

NJZ001-105-106-008-010-013-015-019>022-104-250800-
NEW JERSEY

CITY           SKY/WX    TMP DP  RH WIND       PRES   REMARKS
NEWARK/LIBERTY CLEAR     38  22  52 W6        29.92F WCI  33
TETERBORO      CLEAR     36  21  54 W3        29.90F
CALDWELL       CLEAR     36  21  54 W6        29.91F WCI  31
MORRISTOWN     CLEAR     34  23  64 W5        29.92S WCI  30
SOMERVILLE     CLEAR     30  23  75 CALM      29.92S
SUSSEX         CLEAR     29  21  72 CALM      29.91F
ANDOVER          N/A     30  24  78 CALM      29.91F
TRENTON        CLEAR     36  21  54 CALM      29.94S
MILLVILLE      CLEAR     28  24  85 W3        29.97S
ATLANTIC CITY  CLEAR     34  24  67 CALM      29.96F
WRIGHTSTOWN    CLEAR     31  24  74 S3        29.92F
TOMS RIVER     CLEAR     28  21  74 CALM      29.93F
BELMAR         CLEAR     36  18  48 W3        29.93F
$$

PAZ047>061-062-071-250800-
EASTERN PENNSYLVANIA

CITY           SKY/WX    TMP DP  RH WIND       PRES   REMARKS
PHILADELPHIA   CLEAR     42  21  43 NW5       29.98S
ALLENTOWN      CLEAR     33  21  61 SW5       29.94S WCI  29
SCRANTON       CLEAR     35  22  58 CALM      29.91S
$$

CTZ002-004>006-009-010-012-RIZ004-006-007-MAZ004-011-015-250800-
SOUTHERN NEW ENGLAND
 IN CT

CITY           SKY/WX    TMP DP  RH WIND       PRES   REMARKS
BRADLEY INTL   CLEAR     36  20  52 NW5       29.82F WCI  32
HARTFORD       CLEAR     36  20  52 VRB3      29.84F
DANBURY        CLEAR     28  19  69 W6        29.87F WCI  22
WTRBRY/OXFORD  CLEAR     30  16  55 NW3       29.85F
BRIDGEPORT     CLEAR     35  24  64 W6        29.87F WCI  30
MERIDEN        CLEAR     28  21  75 CALM      29.85F
NEW HAVEN      CLEAR     36  23  59 W7        29.86F WCI  30
CHESTER        FAIR      34  21  60 W5        29.84S WCI  30
GROTON         CLEAR     35  21  56 W7        29.84S WCI  29
WILLIMANTIC    CLEAR     35  21  56 W7        29.81F WCI  29

 IN RI

CITY           SKY/WX    TMP DP  RH WIND       PRES   REMARKS
PROVIDENCE     CLEAR     35  21  56 W6        29.81S WCI  30
BLOCK ISLAND   CLEAR     37  21  52 NW10G16   29.82S WCI  30
WESTERLY       CLEAR     35  21  56 W3        29.83F

 IN MA

CITY           SKY/WX    TMP DP  RH WIND       PRES   REMARKS
BOSTON         PTCLDY    39  22  50 W9G22     29.77S WCI  33
WORCESTER      CLEAR     32  20  61 NW9G21    29.74F WCI  24
WESTFIELD      CLEAR     34  20  56 CALM      29.81F
PROVINCETOWN   CLEAR    N/A N/A N/A NW18G29   29.76S
NANTUCKET      CLEAR     40  25  55 NW17      29.77S WCI  31
$$

ANZ330-335-338-340-345-350-353-355-250800-
COASTAL MARINE OBSERVATIONS


STATION/POSITION TIME  SKY/WX   TEMP    WIND        PRES    VSBY  WAVE
                                AIR SEA DIR/SP/G                  HT/PER
                 (UTC)          (F)     (DEG/KT/KT) (MB)    (MI)  (FT/S)
NY HARB ENTRANCE 0650            41 44  310/ 14/ 17 1012.6          3/ 4
4S FIRE IS       0603               43                N/A           2/13
20S FIRE ISLAND  0650            40 43  310/ 14/ 16 1012.6          3/ 5
23SW MTP         NOT AVBL
HUDSON CANYON    NOT AVBL
EXECUTION ROCKS  NOT AVBL
WESTERN LI SOUND NOT AVBL
CENTRAL LI SOUND NOT AVBL
EASTERN LI SOUND 0600            39     300/ 12/ 17   N/A
ROBBINS REEF     0600            39     320/  8/ 12 1012.2
$$


>>>>>>>>>>>>>>>>>>>>>>>>>>>> KEY <<<<<<<<<<<<<<<<<<<<<<<<<<<
>                                                          <
>     SKY/WX - SKY CONDITION/PRESENT WEATHER               <
>     TMP    - TEMPERATURE IN FAHRENHEIT                   <
>     DP     - DEWPOINT IN FAHRENHEIT                      <
>     RH     - RELATIVE HUMIDITY IN PERCENT                <
>     WIND   - DIRECTION AND SPEED IN MPH                  <
>     PRES   - MEAN SEA LEVEL PRESSURE IN INCHES OF HG     <
>     WCI    - WIND CHILL INDEX                            <
>     VSB    - VISIBILITY IN MILES                         <
>     HX     - HEAT INDEX                                  <
>     TC     - TEMPERATURE IN CELSIUS                      <
>     VRB    - VARIABLE WIND DIRECTION                     <
>                                                          <
>>>>>>>>>>>>>>>>>>>>>>>>>>>> KEY <<<<<<<<<<<<<<<<<<<<<<<<<<<




USA.gov is the U.S. government's official web portal to all federal, state and local government web resources and services.